{"data":{"norad_id":68527,"epoch":"2026-09-19T18:11:00.714624Z","epoch_age_seconds":111933,"freshness":"FRESH","line1":"1 68527U 26068V   26262.75764716  .00019349  00000+0  58202-3 0  9996","line2":"2 68527  53.1604 300.9630 0000972  80.1645 279.9468 15.34415911 26751","mean_motion":15.34415911,"eccentricity":9.72e-5,"inclination_deg":53.1604,"raan_deg":300.963,"arg_perigee_deg":80.1645,"mean_anomaly_deg":279.9468,"bstar":0.00058202,"rev_number":2675,"period_min":93.846784934701,"perigee_km":461.99102469595,"apogee_km":463.32087484538,"semimajor_km":6840.7929497707,"source":"CELESTRAK","updated_at":"2026-09-20T09:00:43.906439Z"}}